TOURFACTS.DK  
Stats and Facts from Tour de France.

Tour de France 2019 starts in 347 days
  Riders   Stages   Teams   Summits   Yearly  


 
Search by year

After 2018 - Stage 14:
 15000 starters.
  5163 different riders.
  639 teams.
  2246 stages.
  456 restdays.
  441957.60 km.
  5678 abandonnees.


Top 3
GC
Christopher Froome86:20:55
Rigoberto Urán86:21:49
Romain Bardet86:23:15
Climb
Warren Barguil169 pt.
Primoz Roglic80 pt.
Thomas De Gendt64 pt.
Sprint
Michael Matthews359 pt.
André Greipel234 pt.
Edvald Boasson Hagen220 pt.
Youth
Simon Yates86:27:09
Louis Meintjes86:29:15
Emanuel Buchmann86:54:16
Facts from Tour de France 1974
  |   Stages.  |   Stage winners.  |   Days in yellow  |   Average speed.  |   Route.  |   Teams.  |   All riders.  |   Rookies.  |  

  |   Withdrawls.  |   GC.  |   Polka  |   Green  |   White  |   Summits. (In tour)  |   Miscellaneous.  |  

Stage 16 on July 15th. 1974
         Owning:    Eddy Merckx    
Pick a stage:  Pro 1 2 3 4 5 6a 6b 7 8a 8b 9 10 11 12 13 14 15 16 17 18 19a 19b 20 21a 21b 22
From: La Seu-d´Urgell    To: Saint-Lary-SoulanDist:209.00 km.
Cat: 2Puerto de CantoESPDomingo Perurena
12 points
 
Cat: 1Puerto de la BonaiguaESPDomingo Perurena
15 points
 
Cat: 2Col du PortillonESPDomingo Perurena
12 points
 
Cat: 2Col de PeyresourdeESPVicente Lopez
12 points
 
Cat: 1Pla d'AdetFRARaymond Poulidor
15 points
 

Average speed for all riders in stage:  25,481 km./hr.
    Place:Name:Team:Time:Km/h:
FRARaymond PoulidorFRAGan-Mercier-Hutchinson07:53:29  +  00:00:00=26,485 
ESPVicente LopezESPKas-Kaskol07:54:10  +  00:00:41=26,446 
BELMichel PollentierBELCarpenter Confortluxe-Flandria07:54:31  +  00:01:02=26,427 
4 FRAAlain SantyFRAGan-Mercier-Hutchinson07:54:46  +  00:01:17=26,413 
5 BELEddy MerckxITAMolteni07:55:18  +  00:01:49=26,383 
6 ITAWladimiro PanizzaITABrooklyn07:55:34  +  00:02:05=26,369 
7 FRARoger PingeonFRAJobo-Lejeune07:56:03  +  00:02:34=26,342 
8 ESPAndré RomeroFRAJobo-Lejeune07:57:00  +  00:03:31=26,289 
9 FRAMichel PerinFRAGan-Mercier-Hutchinson07:57:14  +  00:03:45=26,276 
10 BELWilly Van NesteFRASonolor-Gitanes07:57:17  +  00:03:48=26,274 
11 ESPGonzalo AjaESPKas-Kaskol07:57:21  +  00:03:52=26,270 
12 ESPMariano MartinezFRASonolor-Gitanes07:57:51  +  00:04:22=26,243 
13 ESPJuan ZuranoESPLa Casera-Peña Bahamontes07:59:57  +  00:06:28=26,128 
14 PORJoaquim AgostinhoFRABic08:00:01  +  00:06:32=26,124 
15 BELEduard JanssensITAMolteni08:00:23  +  00:06:54=26,104 
16 FRARaymond DelisleFRAPeugeot-BP-Michelin08:00:46  +  00:07:17=26,083 
17 ESPMiguel LasaESPKas-Kaskol08:00:54  +  00:07:25=26,076 
18 FRARoland BerlandFRABic08:01:23  +  00:07:54=26,050 
19 FRABernard LabourdetteFRABic08:01:24  +  00:07:55=26,049 
20 BELHerman Van SpringelBELMic-De Gribaldy-Ludo08:01:26  +  00:07:57=26,047 
21 FRAJean-Pierre DanguillaumeFRAPeugeot-BP-Michelin08:02:03  +  00:08:34=26,014 
22 FRAJosé CatieauFRABic08:02:03  +  00:08:34=26,014 
23 FRAFerdinand JulienFRASonolor-Gitanes08:02:38  +  00:09:09=25,982 
24 NEDFedor Iwan Den HertogNLDFrisol-Flair Plastics08:03:06  +  00:09:37=25,957 
25 FRAJean-Claude MisacFRAMerlin Plage-Flandria08:03:36  +  00:10:07=25,931 
26 BELRonald De WitteBELCarpenter Confortluxe-Flandria08:04:51  +  00:11:22=25,864 
27 BELGeorges PintensBELMic-De Gribaldy-Ludo08:04:53  +  00:11:24=25,862 
28 NEDWim PrinsenNLDFrisol-Flair Plastics08:04:55  +  00:11:26=25,860 
29 BELMarc LievensITAMolteni08:04:57  +  00:11:28=25,858 
30 ESPAndrês OlivaESPLa Casera-Peña Bahamontes08:05:31  +  00:12:02=25,828 
31 ITAGiancarlo BelliniITABrooklyn08:06:05  +  00:12:36=25,798 
32 FRAJoël MillardFRAMerlin Plage-Flandria08:06:15  +  00:12:46=25,789 
33 BELLucien Van ImpeFRASonolor-Gitanes08:06:38  +  00:13:09=25,769 
34 ESPDamaso TorresESPLa Casera-Peña Bahamontes08:06:50  +  00:13:21=25,758 
35 ESPAntonio MenendezESPKas-Kaskol08:07:42  +  00:14:13=25,713 
36 ITAFausto BertoglioITABrooklyn08:07:44  +  00:14:15=25,711 
37 ITAValerio LualdiITABrooklyn08:07:45  +  00:14:16=25,710 
38 FRAJean-Luc MolinerisFRABic08:08:23  +  00:14:54=25,677 
39 FRAChristian BlainFRAJobo-Lejeune08:09:34  +  00:16:05=25,614 
40 ESPCarlos MeleroESPKas-Kaskol08:10:09  +  00:16:40=25,584 
41 ESPJesus ManzanequeESPLa Casera-Peña Bahamontes08:10:52  +  00:17:23=25,547 
42 BELJan Van De WieleBELMic-De Gribaldy-Ludo08:11:02  +  00:17:33=25,538 
43 FRAGerard MoneyronFRAMerlin Plage-Flandria08:11:02  +  00:17:33=25,538 
44 BELAndré DierickxFRAMerlin Plage-Flandria08:11:04  +  00:17:35=25,536 
45 ESPJosé PesarrodonaESPKas-Kaskol08:11:10  +  00:17:41=25,531 
46 NEDGerrie KnetemannFRAGan-Mercier-Hutchinson08:11:23  +  00:17:54=25,520 
47 BELJoseph BruyereITAMolteni08:11:23  +  00:17:54=25,520 
48 ESPLuis ZuberoESPKas-Kaskol08:11:23  +  00:17:54=25,520 
49 FRAChristian RaymondFRAGan-Mercier-Hutchinson08:12:24  +  00:18:55=25,467 
50 ESPJosé AbilleiraESPLa Casera-Peña Bahamontes08:12:30  +  00:19:01=25,462 
51 BELWilfried WesemaelBELMic-De Gribaldy-Ludo08:13:20  +  00:19:51=25,419 
52 BELVictor Van SchilITAMolteni08:13:51  +  00:20:22=25,392 
53 BELPatrick SercuITABrooklyn08:15:29  +  00:22:00=25,309 
54 NEDGerard VianenFRAGan-Mercier-Hutchinson08:16:03  +  00:22:34=25,280 
55 BELMarc DemeyerBELCarpenter Confortluxe-Flandria08:16:03  +  00:22:34=25,280 
56 FRAAndré MolletFRAPeugeot-BP-Michelin08:16:17  +  00:22:48=25,268 
57 NEDGerben KarstensFRABic08:16:32  +  00:23:03=25,255 
58 ENGBarry HobanFRAGan-Mercier-Hutchinson08:17:05  +  00:23:36=25,227 
59 FRAAlain NoguesFRASonolor-Gitanes08:17:28  +  00:23:59=25,208 
60 BELJoseph SpruytITAMolteni08:17:28  +  00:23:59=25,208 
61 FRADaniel DucreuxFRAJobo-Lejeune08:17:28  +  00:23:59=25,208 
62 FRAFrancis CampanerFRAJobo-Lejeune08:18:09  +  00:24:40=25,173 
63 BELGustaaf Van RoosbroeckBELMic-De Gribaldy-Ludo08:18:09  +  00:24:40=25,173 
64 FRASylvain VasseurFRABic08:18:09  +  00:24:40=25,173 
65 BELWilly TeirlinckFRASonolor-Gitanes08:18:09  +  00:24:40=25,173 
66 BELFrans Van LooyBELCarpenter Confortluxe-Flandria08:18:09  +  00:24:40=25,173 
67 ITAGianni Di LorenzoITABrooklyn08:18:09  +  00:24:40=25,173 
68 FRAJacques EsclassanFRAPeugeot-BP-Michelin08:18:09  +  00:24:40=25,173 
69 BELLudo DelcroixITAMolteni08:18:09  +  00:24:40=25,173 
70 FRARégis OvionFRAPeugeot-BP-Michelin08:18:09  +  00:24:40=25,173 
71 FRACharly RouxelFRAPeugeot-BP-Michelin08:18:09  +  00:24:40=25,173 
72 BELRonny VanmarckeBELMic-De Gribaldy-Ludo08:18:09  +  00:24:40=25,173 
73 FRAJacky MouriouxFRAGan-Mercier-Hutchinson08:18:09  +  00:24:40=25,173 
74 BELFrans MintjensITAMolteni08:18:09  +  00:24:40=25,173 
75 FRAJean-Pierre GenetFRAGan-Mercier-Hutchinson08:18:09  +  00:24:40=25,173 
76 BELArthur Van de VyverBELCarpenter Confortluxe-Flandria08:18:09  +  00:24:40=25,173 
77 BELDirk BaertBELMic-De Gribaldy-Ludo08:18:09  +  00:24:40=25,173 
78 ESPFernando PlazaESPLa Casera-Peña Bahamontes08:18:19  +  00:24:50=25,165 
79 BELJoseph HuysmansITAMolteni08:18:25  +  00:24:56=25,160 
80 COLAntonio MartosESPKas-Kaskol08:18:47  +  00:25:18=25,141 
81 ITAAldo ParecchiniITABrooklyn08:18:47  +  00:25:18=25,141 
82 ESPDomingo PerurenaESPKas-Kaskol08:18:47  +  00:25:18=25,141 
83 FRABernard BourreauFRAPeugeot-BP-Michelin08:19:12  +  00:25:43=25,120 
84 FRAClaude MagniFRAJobo-Lejeune08:19:12  +  00:25:43=25,120 
85 ENGMichael WrightFRASonolor-Gitanes08:19:20  +  00:25:51=25,113 
86 FRARaymond RiotteFRAPeugeot-BP-Michelin08:19:39  +  00:26:10=25,098 
87 FRAJean-Jacques SanquerFRAMerlin Plage-Flandria08:19:40  +  00:26:11=25,097 
88 BELJos De SchoenmaeckerITAMolteni08:19:41  +  00:26:12=25,096 
89 FRACyrille GuimardFRAMerlin Plage-Flandria08:19:41  +  00:26:12=25,096 
90 BELNoël VancloosterBELMic-De Gribaldy-Ludo08:20:24  +  00:26:55=25,060 
91 ITAArturo PecchielanITABrooklyn08:20:27  +  00:26:58=25,057 
92 FRAGuy SibilleFRAPeugeot-BP-Michelin08:20:33  +  00:27:04=25,052 
93 FRARegis DelepineFRAMerlin Plage-Flandria08:20:39  +  00:27:10=25,047 
94 FRADaniel RebillardFRAMerlin Plage-Flandria08:20:39  +  00:27:10=25,047 
95 FRAMichel CorollerFRAMerlin Plage-Flandria08:20:39  +  00:27:10=25,047 
96 FRAJean-Pierre GuillemotFRAJobo-Lejeune08:20:50  +  00:27:21=25,038 
97 FRARobert MintkiewiczFRASonolor-Gitanes08:21:12  +  00:27:43=25,020 
98 BELDaniel VerplanckeBELCarpenter Confortluxe-Flandria08:21:28  +  00:27:59=25,007 
99 FRAAlain CiganaFRAJobo-Lejeune08:21:56  +  00:28:27=24,983 
100 FRAAlain VasseurFRABic08:22:24  +  00:28:55=24,960 
101 FRAJean-Claude BlocherFRAJobo-Lejeune08:22:49  +  00:29:20=24,940 
102 NEDHenk PrinsenNLDFrisol-Flair Plastics08:23:17  +  00:29:48=24,916 
103 NEDPiet Van KatwijkNLDFrisol-Flair Plastics08:23:44  +  00:30:15=24,894 
104 FRAJacques BotherelFRASonolor-Gitanes08:23:55  +  00:30:26=24,885 
105 FRABernard CroyetFRABic08:24:27  +  00:30:58=24,859 
106 AUSDonald AllanNLDFrisol-Flair Plastics08:25:16  +  00:31:47=24,819 
107 ITALorenzo AlaimoNLDFrisol-Flair Plastics08:25:21  +  00:31:52=24,814 
108 FRABernard MassonFRAJobo-Lejeune08:26:39  +  00:33:10=24,751 

Withdrawls: 2
 
Rider
Team
Reason
33  ESPFrancisco GaldosESPKas-KaskolDid not start
62  NEDCees BalFRAGan-Mercier-HutchinsonDid not finish

Todays birthdays.

1887  Donald Kirkham
1889  Théodore Abada
1911  Guillaume Chavard
1912  Jean Fontenay
1913  Fabien Galateau
1930  Roger Hassenforder
1930  Richard Van Genechten
1936  Philippe Gaudrillet
1937  Joseph Novales
1954  Hans-Peter Jakst
1960  Manuel Ramos
1973  David Etxebarria
1974  Rik Verbrugghe
1976  Jörg Jaksche




Visits: